[[{"header":{"parameterUnit":"m.s-1","parameterCategory":1,"la1":30.2992,"la2":30.254,"lo1":-89.0895,"lo2":-89.0443,"dy":0.0025,"dx":0.0025,"nx":19,"ny":19,"refTime":"2026-03-21T21:00:00:Z","depth":0,"parameterNumber":2,"parameterNumberName":"U-component_of_WINDS"},"data":[0,0,0,2.6779,2.6783,2.6942,2.6943,2.7145,2.7147,0,0,0,0,0,0,0,0,0,0,0,2.6728,2.6729,2.6779,2.6783,2.6942,2.6943,2.7145,2.7147,0,0,0,0,0,0,0,0,0,0,0,2.6727,2.6729,2.673,2.6784,2.6942,2.6943,2.7145,2.7026,0,0,0,0,0,0,0,0,0,0,2.6872,2.6818,2.6728,2.673,2.6784,2.6942,2.6943,2.702,2.7033,2.7072,0,2.7101,0,2.7127,2.716,2.7161,0,0,0,2.6787,2.6807,2.6854,2.673,2.6786,2.6942,2.6871,2.7027,2.7042,2.7089,2.7104,2.7112,2.7131,2.7162,2.7163,2.7366,2.7367,0,0,2.6778,2.6755,2.6844,2.6864,2.6835,2.6866,2.6876,2.7036,2.7053,2.7105,2.7117,2.7134,2.7163,2.7164,2.7365,2.7366,0,0,0,2.675,2.6748,2.6791,2.6855,2.6884,2.6871,2.6882,2.7046,2.7062,2.7119,2.7136,2.7164,2.7166,2.7364,2.7365,2.738,0,0,0,2.6745,2.6732,2.6787,2.6774,2.6881,2.6966,2.6888,2.7051,2.7069,2.7135,2.7164,2.7168,2.7363,2.7365,2.7378,2.7392,0,0,0,2.6719,2.6729,2.675,2.6773,2.684,2.6964,2.6989,2.7055,2.708,2.7161,2.7169,2.7363,2.7365,2.7376,2.7389,2.744,0,0,0,2.6685,2.676,2.675,2.6842,2.6839,2.6971,2.6988,2.7088,2.716,2.7165,2.7364,2.7365,2.7376,2.7387,2.7438,2.748,2.7494,0,0,2.6767,2.6769,2.6826,2.6821,2.6949,2.6948,2.708,2.7169,2.7199,2.731,2.7315,2.7379,2.7388,2.744,2.7583,2.7594,0,0,0,2.6844,2.6884,2.6924,2.699,2.7058,2.712,2.7191,2.7225,2.7319,2.725,2.7411,2.7418,2.7449,2.747,2.748,2.751,2.7374,2.7373,2.7373,2.6927,2.6962,2.7058,2.7113,2.7177,2.7251,2.7308,2.7367,2.7382,2.742,2.7453,2.7536,2.756,2.7567,2.7598,2.7477,2.7477,2.7478,2.7478,2.7053,2.7116,2.7137,2.7238,2.7276,2.7363,2.7439,2.7448,2.7536,2.7513,2.7542,2.7514,2.7579,2.7607,2.7479,2.7479,2.7479,2.7478,2.7478,2.7112,2.7149,2.7188,2.729,2.7365,2.742,2.7504,2.7535,2.7566,2.7595,2.7635,2.7635,2.7641,2.7612,2.7612,2.7612,2.7613,2.7613,2.7613,2.7158,2.7202,2.7268,2.735,2.7398,2.7467,2.7545,2.7595,2.7659,2.7675,2.7676,2.769,2.7577,2.7549,2.7618,2.7617,2.7616,2.7616,2.7615,2.7274,2.7254,2.7355,2.7404,2.7506,2.7581,2.762,2.7721,2.7767,2.7809,2.7818,2.7729,2.7734,2.7726,2.7704,2.7808,2.7808,2.7808,2.7808,2.7325,2.7331,2.7444,2.7521,2.76,2.7647,2.7767,2.783,2.7892,2.7924,2.7914,2.7886,2.7877,2.7888,2.7877,2.7856,2.7997,2.7997,2.7997,2.74,2.7416,2.7509,2.7567,2.765,2.7722,2.7836,2.7927,2.7993,2.8005,2.7951,2.7943,2.7898,2.7881,2.7891,2.7873,2.7836,0,0]},{"header":{"parameterUnit":"m.s-1","parameterCategory":1,"la1":30.2992,"la2":30.254,"lo1":-89.0895,"lo2":-89.0443,"dy":0.0025,"dx":0.0025,"nx":19,"ny":19,"refTime":"2026-03-21T21:00:00:Z","depth":0,"parameterNumber":3,"parameterNumberName":"V-component_of_WINDS"},"data":[0,0,0,-0.0128,-0.0126,-0.0056,-0.0056,0.0035,0.0036,0,0,0,0,0,0,0,0,0,0,0,-0.0148,-0.0147,-0.0128,-0.0126,-0.0056,-0.0056,0.0035,0.0036,0,0,0,0,0,0,0,0,0,0,0,-0.0148,-0.0147,-0.0146,-0.0126,-0.0056,-0.0055,0.0035,-0.0018,0,0,0,0,0,0,0,0,0,0,-0.0087,-0.0104,-0.0147,-0.0146,-0.0125,-0.0056,-0.0055,-0.0021,-0.0015,0.0004,0,0.0021,0,0.003,0.0042,0.0042,0,0,0,-0.0126,-0.0109,-0.0091,-0.0146,-0.0125,-0.0056,-0.0088,-0.0018,-0.0011,0.0011,0.0022,0.0025,0.0031,0.0043,0.0043,0.0149,0.0149,0,0,-0.013,-0.0134,-0.0096,-0.0087,-0.0098,-0.009,-0.0085,-0.0014,-0.0002,0.0022,0.0027,0.0033,0.0043,0.0044,0.0149,0.0149,0,0,0,-0.0141,-0.0137,-0.0121,-0.0091,-0.0078,-0.0088,-0.0083,-0.0006,-0.0,0.0028,0.0034,0.0044,0.0045,0.0148,0.0149,0.0167,0,0,0,-0.0143,-0.0143,-0.0122,-0.0124,-0.008,-0.0041,-0.0076,-0.0005,0.0003,0.0033,0.0044,0.0046,0.0147,0.0148,0.0165,0.0176,0,0,0,-0.0152,-0.0145,-0.0134,-0.0125,-0.0095,-0.0042,-0.0032,-0.0003,0.0007,0.0042,0.0046,0.0147,0.0148,0.0164,0.0174,0.02,0,0,0,-0.0163,-0.0116,-0.0134,-0.008,-0.0095,-0.0031,-0.0033,0.0016,0.0049,0.0044,0.0148,0.0149,0.0163,0.0173,0.0199,0.022,0.023,0,0,-0.0107,-0.011,-0.0078,-0.0092,-0.0026,-0.0041,0.0028,0.0063,0.0072,0.0123,0.0125,0.0166,0.0174,0.02,0.0286,0.0293,0,0,0,-0.0061,-0.0039,-0.002,0.001,0.0037,0.006,0.0086,0.0098,0.0141,0.0097,0.0184,0.0189,0.0204,0.0215,0.0221,0.0233,0.0154,0.0154,0.0154,0.0012,0.0018,0.007,0.0084,0.0114,0.0137,0.0161,0.0182,0.0182,0.0202,0.0217,0.0268,0.028,0.0285,0.0298,0.0231,0.0231,0.0231,0.0231,0.0094,0.0125,0.0121,0.0169,0.0175,0.0217,0.024,0.0238,0.0277,0.0259,0.0273,0.025,0.0292,0.0304,0.0232,0.0232,0.0232,0.0232,0.0232,0.0141,0.0156,0.017,0.0211,0.0243,0.0256,0.0291,0.0297,0.0302,0.0316,0.033,0.033,0.0328,0.0323,0.0323,0.0323,0.0323,0.0323,0.0323,0.0183,0.0198,0.0227,0.0257,0.0275,0.0299,0.0322,0.034,0.0361,0.0362,0.0362,0.0357,0.0296,0.0279,0.0326,0.0326,0.0325,0.0325,0.0325,0.026,0.0243,0.0288,0.0305,0.0339,0.0368,0.0374,0.0409,0.0425,0.0442,0.0434,0.0389,0.0387,0.0382,0.0367,0.0435,0.0435,0.0435,0.0435,0.0298,0.0297,0.0342,0.0369,0.0397,0.0405,0.0454,0.0471,0.0486,0.0495,0.0487,0.0469,0.0464,0.0464,0.0458,0.0444,0.053,0.053,0.053,0.0344,0.0345,0.0386,0.0398,0.0424,0.0446,0.0491,0.0522,0.0536,0.0534,0.0502,0.0498,0.047,0.0461,0.0457,0.0446,0.0422,0,0]}]]